Regional Weather Roundup
Issued by NWS

Home | Current Version | Previous Version | Graphics & Text | Print | Product List | Glossary On
Versions: 1 2 3 4 5 6 7 8 9 10 11 12 13 14 15 16 17 18 19 20 21 22 23 24 25 26 27 28 29 30 31 32 33 34 35 36 37 38 39 40 41 42 43 44 45 46 47 48 49 50
000
ASUS43 KDMX 261106
RWRIA

WEATHER ROUNDUP FOR IOWA
NATIONAL WEATHER SERVICE DES MOINES IA
600 AM CDT SAT MAY 26 2018

NOTE: "FAIR" INDICATES FEW OR NO CLOUDS BELOW 12,000 FEET WITH NO
SIGNIFICANT WEATHER AND/OR OBSTRUCTIONS TO VISIBILITY.

* - THESE STATIONS ARE NOT NWS STATIONS...THUS NOT UNDER NWS
QUALITY CONTROL.  THEY ALSO DO NOT REPORT WEATHER SUCH
AS PRECIPITATION OR FOG.

IAZ001>003-012>014-020>022-031>034-043>046-261200-
   NORTHWEST IOWA

CITY           SKY/WX    TMP DP  RH WIND       PRES   REMARKS
CARROLL *      CLEAR     64  57  77 CALM      29.76R
CHEROKEE *     CLEAR     57  57 100 CALM      29.77S
DENISON *      CLEAR     63  61  94 N3        29.78R
LE MARS *      PTCLDY    61  59  94 CALM      29.77R
ORANGE CITY *  PTCLDY    70  55  60 NW5       29.78R
SHELDON *      PTCLDY    59  57  94 CALM      29.76S
SIOUX CITY     PTCLDY    64  58  80 CALM      29.76R
SPENCER        CLEAR     59  57  93 W5        29.76S
STORM LAKE *   CLEAR     66  57  72 W8        29.77S
$$

IAZ055>058-069>071-079>083-090>094-261200-
   SOUTHWEST IOWA

CITY           SKY/WX    TMP DP  RH WIND       PRES   REMARKS
ATLANTIC *     CLEAR     63  63 100 CALM      29.77R
AUDUBON *      CLEAR     61  57  88 CALM      29.78S
CLARINDA *       N/A     64  63  94 SW5       29.78S
COUNCIL BLFS * CLEAR     72  66  83 W3        29.77R
CRESTON *      CLEAR     68  64  88 SW6       29.79R
HARLAN  *      CLEAR     63  63 100 CALM      29.80R
LAMONI         CLEAR     69  65  86 SW10      29.77R
RED OAK *      CLEAR     63  61  94 CALM      29.77R
SHENANDOAH *   CLEAR     68  63  83 CALM      29.77R
$$

IAZ047>049-059>061-072>074-084-261200-
   CENTRAL IOWA

CITY           SKY/WX    TMP DP  RH WIND       PRES   REMARKS
AMES           CLEAR     66  65  96 S5        29.75S
ANKENY *       CLEAR     64  64 100 CALM      29.76S
BOONE *        CLEAR     66  64  94 S5        29.75S
CHARITON *     CLEAR     66  64  94 E3        29.78R
DES MOINES     PTCLDY    69  65  86 SE6       29.75R
GRINNELL*      CLEAR     65  63  92 SE7       29.78S
KNOXVILLE *    CLEAR     68  64  88 S8        29.76S
MARSHALLTOWN   CLEAR     66  66 100 S7        29.75R
NEWTON *       CLEAR     66  64  94 S7        29.77R
PELLA *        CLEAR     69  65  85 S6        29.78R
PERRY *        FAIR      64  63  95 CALM      29.75S
$$

IAZ004>006-015-016-023>025-035-036-261200-
   NORTH CENTRAL IOWA

CITY           SKY/WX    TMP DP  RH WIND       PRES   REMARKS
ALGONA *       CLEAR     64  61  88 S6        29.76S
CLARION *      CLEAR     64  63  94 S7        29.76R
ESTHERVILLE    CLEAR     64  59  83 W9        29.74S
FORT DODGE *   PTCLDY    62  61  96 CALM      29.76S
MASON CITY     CLEAR     63  62  97 SW7       29.76S
FOREST CITY *  FOG       59  59 100 CALM      29.76S VSB<1/4
WEBSTER CITY * CLEAR     66  64  94 S6        29.74S
IOWA FALLS *   FAIR      65  63  94 S5        29.77S
$$

IAZ007>011-017>019-026>030-037>042-050>054-066-261200-
   NORTHEAST IOWA

CITY           SKY/WX    TMP DP  RH WIND       PRES   REMARKS
CEDAR RAPIDS   FAIR      64  64 100 SW10      29.75S
CHARLES CITY * FAIR      63  61  94 S5        29.76S
CLINTON *        N/A     65  62  90 N5        29.77R
DECORAH *      FAIR      63  63 100 SW3       29.75R
DUBUQUE        FAIR      63  59  87 W7        29.75R
MONTICELLO *   FAIR      64  61  88 CALM      29.75S
OELWEIN *      FAIR      63  61  94 CALM      29.77R
WATERLOO       FAIR      62  61  96 S3        29.74S
$$

IAZ064-065-067-068-078-261200-
   EAST CENTRAL IOWA

CITY           SKY/WX    TMP DP  RH WIND       PRES   REMARKS
DAVENPORT      FAIR      65  60  84 W7        29.77R
IOWA CITY      MOCLDY    65  62  90 CALM      29.77S
MT. PLEASANT * PTCLDY    63  63 100 S10       29.79F
MUSCATINE *    FAIR      66  61  82 SW7       29.76R
QUAD CITIES    FAIR      66  62  87 W5        29.74R
$$

IAZ062-063-075>077-085>089-095>099-261200-
   SOUTHEAST IOWA

CITY           SKY/WX    TMP DP  RH WIND       PRES   REMARKS
BURLINGTON     CLOUDY    65  63  93 S7        29.78F
FAIRFIELD *    CLEAR     64  63  94 S9        29.79R
FORT MADISON * CLOUDY    66  66 100 S5        29.82F
KEOKUK *       CLOUDY    66  66 100 SE5       29.82F
OSKALOOSA *    FAIR      66  64  94 S8        29.79R
CENTERVILLE *    N/A     66  66 100 CALM      29.81R
OTTUMWA        CLEAR     67  65  93 S8        29.78S
WASHINGTON *   MOCLDY    66  64  94 S9        29.79S
$$

ABBREVIATIONS USED IN REMARKS
   TC - TEMPERATURES IN CELSIUS
  WCI - WIND CHILL INDEX
   HX - HEAT INDEX
  VSB - VISIBILITY
$$





USA.gov is the U.S. government's official web portal to all federal, state and local government web resources and services.